Theta_e
349 349 349 349 349 349 349 348 346 344 342 341 339 336 334 333 333 334 335 335 333 330 329 331 333 334 332 332 334 336 337 338 338 339 339 339 338 338 338 338 338 337 337 338 339 339 339 339 338 338 338 338 338 339 339 339 337 335 333 332 332 332 333 336 335 330 326 327 328 328 329 329 329 329 329 329 330 331 331 332 333 334 334 335 335
349 349 349 349 349 349 349 349 347 346 345 343 341 338 336 334 332 333 335 333 332 330 328 329 332 332 332 331 332 333 334 335 336 337 338 338 338 338 338 338 337 336 336 336 336 336 337 337 336 336 337 337 336 337 337 339 339 339 338 337 335 334 333 334 333 331 329 327 327 328 328 328 328 327 327 327 328 330 331 331 331 332 333 334 334
350 349 350 350 350 350 350 350 348 348 347 345 342 340 338 336 334 333 332 331 330 329 328 329 330 331 331 332 332 332 333 334 334 335 335 336 336 336 336 337 337 336 336 334 334 335 335 335 335 335 336 336 335 335 335 336 338 338 339 339 339 338 336 335 335 334 333 332 331 330 329 329 329 328 328 328 327 328 330 331 332 332 332 333 333
350 350 351 350 350 351 350 350 350 349 348 346 344 341 339 338 336 334 333 332 330 329 328 328 328 329 330 330 331 332 333 334 334 334 334 334 334 334 334 334 335 335 334 333 333 334 334 334 334 334 335 335 335 335 335 336 336 336 337 337 338 338 338 338 338 337 336 336 335 334 334 333 332 331 330 329 328 327 328 329 331 332 331 331 332
351 351 351 351 351 351 351 351 351 350 349 347 344 342 339 338 337 336 334 333 331 329 329 328 328 328 328 328 329 331 332 333 333 333 333 333 333 333 333 333 334 334 334 333 333 333 334 333 333 333 335 335 335 335 336 336 336 336 336 335 336 337 338 339 339 339 339 339 337 336 336 336 335 333 331 330 328 327 327 327 328 330 330 331 330
352 351 352 352 352 352 352 352 352 351 350 348 345 342 340 339 338 336 335 334 332 330 329 329 328 328 327 327 328 329 331 331 332 332 332 332 333 333 333 333 333 333 333 334 334 334 334 333 333 333 334 334 334 334 335 335 335 335 335 335 335 335 336 337 338 339 339 339 339 338 337 337 337 336 334 332 330 327 326 325 326 326 327 328 328
353 353 353 352 352 353 353 353 352 352 350 348 346 343 341 339 338 336 335 334 332 331 330 329 328 328 327 327 327 328 329 330 331 331 331 332 332 332 333 333 333 333 333 333 334 334 334 334 334 334 334 334 333 332 333 334 334 334 334 334 334 335 335 335 335 336 337 337 337 337 336 336 336 336 335 335 334 331 327 325 324 324 324 325 325
353 353 353 353 353 353 353 353 353 353 352 350 348 345 342 339 337 336 335 334 332 331 330 329 328 328 328 328 328 328 329 330 330 330 331 331 332 332 332 332 332 333 333 333 334 334 335 335 335 336 335 335 334 334 334 335 335 335 334 334 335 335 335 335 335 335 335 336 336 335 335 336 336 335 335 336 336 334 331 329 327 326 325 324 324
354 354 354 354 354 354 354 354 354 354 354 353 351 348 344 341 339 337 336 335 333 332 331 330 329 328 328 328 328 328 329 329 329 330 330 330 331 331 331 332 332 332 332 333 334 335 335 335 335 335 336 336 336 336 336 336 337 337 336 335 336 336 336 336 337 337 337 337 336 336 337 337 336 335 335 335 335 334 335 335 333 332 329 327 326
355 355 354 355 354 354 354 355 355 355 355 354 353 351 348 345 342 339 338 337 335 333 333 332 331 330 329 328 328 328 328 328 328 329 329 330 330 331 331 331 332 332 332 333 334 334 335 335 336 336 337 337 337 336 336 337 337 338 337 337 338 338 339 340 340 340 341 341 339 339 340 339 337 336 336 335 336 336 337 337 337 337 335 333 332
355 355 355 355 355 355 355 356 356 356 356 355 355 353 351 349 346 343 340 339 337 336 335 334 333 332 330 329 329 329 328 328 328 328 328 329 330 331 331 331 332 333 334 334 335 335 336 337 338 338 339 339 338 337 337 336 337 338 338 339 340 341 342 343 343 344 345 345 343 343 344 342 339 339 340 339 338 339 340 340 340 340 339 338 337
356 356 355 355 355 356 356 356 357 357 357 356 356 355 353 351 349 347 344 342 340 338 337 335 334 333 332 331 330 330 329 329 329 329 329 329 330 331 332 332 334 335 335 336 336 337 339 339 340 340 340 340 339 339 339 338 339 340 341 342 343 344 345 345 346 347 347 348 347 347 347 345 343 342 343 342 341 342 343 343 343 343 342 341 341
356 356 355 355 355 355 356 356 357 357 357 357 357 356 355 354 352 351 348 346 343 340 338 337 336 335 334 334 332 331 331 331 330 331 330 331 331 332 333 335 336 336 337 338 339 339 340 341 342 343 342 342 342 343 342 342 341 342 344 345 346 346 347 347 348 349 349 350 350 349 349 347 347 346 346 346 346 346 346 346 346 346 345 345 345
355 354 353 354 355 355 356 357 357 357 358 358 358 358 357 356 355 354 352 350 348 344 340 339 337 336 336 335 334 333 333 332 332 332 332 332 333 334 335 337 338 339 340 341 341 342 343 344 345 345 345 345 346 346 346 346 346 347 348 348 349 349 350 350 351 352 352 352 352 352 351 351 351 351 352 351 351 350 350 350 350 350 349 348 348
353 353 353 354 355 356 357 358 358 359 359 359 359 359 358 358 357 356 355 354 352 350 346 343 341 339 338 337 337 336 334 334 334 334 334 334 335 336 338 338 340 340 341 342 343 343 344 346 347 347 347 348 348 349 350 350 350 351 351 352 352 354 354 355 355 355 356 356 355 356 355 355 355 355 356 355 354 354 354 353 353 352 350 349 349
354 354 354 356 357 357 358 359 359 360 360 360 360 359 359 359 359 359 358 357 356 355 352 350 347 344 342 341 340 339 336 336 336 336 336 336 337 339 340 340 341 342 342 343 344 345 346 348 349 349 350 350 350 351 352 353 354 354 355 356 357 357 358 358 359 359 359 359 359 359 358 358 358 358 358 357 356 356 355 354 354 352 349 348 350
355 355 356 357 358 359 360 360 361 361 361 361 361 361 361 361 361 361 360 360 359 358 357 355 353 351 348 346 344 342 339 338 338 338 338 339 341 341 342 342 343 343 344 344 345 347 348 349 350 351 351 352 352 353 354 355 356 357 358 358 359 360 360 360 360 361 361 360 360 360 360 360 360 359 359 359 358 357 355 353 354 352 349 349 350
357 357 358 359 360 361 361 361 361 361 361 361 362 362 362 362 363 363 362 362 362 361 360 358 357 355 353 350 348 345 342 341 340 340 340 342 343 343 344 345 345 346 346 346 347 348 349 350 351 352 353 353 354 355 356 357 358 359 360 361 361 361 361 362 361 362 361 361 361 361 360 360 360 360 360 360 360 359 356 355 356 353 349 348 348
359 360 361 361 361 362 362 362 362 362 362 362 362 363 363 363 364 364 364 364 363 362 361 360 359 358 356 354 352 350 347 345 343 342 342 344 345 345 346 347 347 347 348 348 349 350 351 352 353 353 354 355 355 356 357 359 360 361 361 362 362 362 362 362 362 362 362 362 361 361 361 361 361 361 361 361 360 360 358 357 357 354 350 349 348
362 362 362 363 363 363 363 363 363 363 363 363 363 364 364 364 365 365 365 365 364 364 363 362 360 359 358 357 355 354 351 349 347 346 345 346 347 347 348 349 349 349 350 350 351 352 352 353 354 354 355 356 357 358 359 360 361 362 362 362 363 363 363 362 363 363 363 363 363 362 362 362 362 361 361 361 360 360 359 359 358 356 354 352 349
364 364 364 364 364 364 364 364 364 364 364 364 364 364 364 365 365 365 365 365 365 364 364 362 362 361 359 359 357 356 355 353 351 350 348 348 348 348 349 350 350 350 351 352 352 353 353 354 354 355 356 357 358 360 361 362 363 363 363 363 363 363 363 363 363 363 363 363 363 363 363 363 363 362 361 361 360 360 360 359 358 357 356 354 352
365 365 365 365 365 365 364 365 365 365 365 365 365 365 366 366 365 365 365 365 365 365 364 363 362 362 361 360 359 358 357 356 355 354 352 351 350 350 350 350 350 352 353 353 354 354 354 355 356 357 358 359 360 361 362 362 363 363 363 363 363 363 363 363 364 364 364 364 364 363 362 361 360 359 357 357 356 357 358 359 359 358 357 356 354
365 365 366 366 366 366 366 366 366 365 365 366 366 366 366 365 366 366 365 366 365 365 365 364 363 362 362 361 361 359 359 358 357 356 355 354 353 352 352 352 352 353 354 354 354 355 356 357 358 360 360 361 362 362 363 363 363 363 363 363 364 364 364 364 364 363 363 362 362 361 360 359 358 357 356 355 354 353 353 354 354 352 352 353 353
361 362 362 362 363 364 364 366 366 366 366 366 365 366 366 365 366 366 366 365 366 365 365 365 363 363 362 362 361 361 360 360 359 358 357 357 356 355 354 354 354 355 355 355 356 357 358 359 360 361 362 362 363 363 363 363 363 364 364 365 364 364 363 363 362 362 362 361 360 358 355 354 352 350 348 346 343 341 340 339 338 338 340 342 345
358 358 359 359 359 359 360 361 363 364 365 365 365 366 365 365 366 366 366 366 365 365 365 365 364 364 363 363 363 362 362 361 361 360 359 358 358 357 356 356 356 356 357 358 359 360 361 361 362 363 363 364 364 364 364 365 365 365 364 364 363 362 362 362 362 360 357 353 348 345 342 339 337 335 334 333 332 332 331 331 331 331 332 334 338
350 353 354 356 356 357 358 359 359 360 361 362 363 363 364 364 365 365 366 365 366 365 365 365 364 364 364 364 364 363 363 363 362 361 361 360 359 358 357 358 359 360 361 362 362 362 363 363 364 364 365 365 365 365 365 365 364 363 363 362 362 361 359 356 351 345 340 336 334 332 331 330 330 330 330 330 330 330 331 331 332 332 333 335 337
346 348 349 351 352 354 355 356 357 358 359 360 361 361 362 364 364 365 365 365 365 365 365 365 365 365 365 365 365 364 364 364 363 363 362 362 361 360 359 360 361 362 363 363 363 363 363 364 365 365 366 366 365 365 364 363 362 362 361 358 354 349 344 338 334 332 330 330 330 329 330 330 329 330 330 330 330 331 331 333 334 334 336 337 338
354 354 354 354 354 354 355 355 358 359 358 358 359 360 362 363 364 365 365 365 365 365 365 365 365 365 365 366 365 366 366 365 365 365 364 364 363 362 362 362 363 363 363 363 364 365 366 366 366 366 365 365 364 363 362 360 358 355 350 343 337 333 331 329 329 329 329 329 329 329 329 329 329 330 331 332 332 333 334 334 335 335 335 335 336
360 361 361 360 360 360 360 360 360 360 359 358 358 359 361 363 364 365 366 366 366 366 366 366 365 365 366 366 366 367 367 366 366 366 366 365 365 364 364 364 363 363 364 365 366 366 366 365 365 364 363 362 361 359 357 352 346 340 334 331 329 329 329 329 329 329 329 329 329 329 329 330 330 331 332 333 334 334 335 335 335 335 334 334 334
361 362 361 361 362 362 362 363 362 360 360 359 359 359 360 361 363 365 366 367 367 367 367 367 367 367 367 367 367 367 366 366 366 366 366 366 365 364 364 364 364 365 365 365 365 364 363 363 362 361 359 357 356 353 347 340 334 329 327 327 328 328 328 328 329 329 329 329 329 329 330 331 332 332 333 334 334 335 336 336 335 334 334 334 334
362 362 361 360 361 362 362 363 363 362 361 361 360 360 360 361 362 364 366 367 368 368 369 369 369 368 368 368 368 367 367 366 366 366 366 365 365 364 364 364 364 364 364 363 363 362 361 361 358 354 350 346 342 337 332 328 327 327 327 327 328 328 328 329 329 329 329 329 330 330 331 332 332 333 333 334 335 335 335 335 334 333 332 333 333
362 362 362 361 361 361 362 362 362 362 362 362 362 361 361 362 362 364 365 366 368 369 369 369 368 368 367 367 366 366 366 366 366 366 365 364 364 363 363 363 363 362 362 362 360 359 356 353 347 340 334 330 328 326 326 326 327 327 328 328 328 329 329 329 329 329 329 330 330 331 331 332 332 333 334 334 334 333 334 334 334 333 332 332 333
361 362 363 364 363 363 363 362 362 363 362 362 362 362 362 363 364 364 365 366 367 367 368 368 368 368 368 367 367 367 366 365 365 366 364 362 362 362 361 361 359 357 357 356 351 346 341 336 331 327 325 325 325 326 327 327 328 328 328 328 329 330 330 330 329 329 330 330 331 331 332 332 332 333 332 332 332 332 332 333 334 334 333 333 333
359 360 362 364 364 364 364 363 364 364 364 364 364 364 364 365 365 365 365 365 364 364 364 366 367 368 367 367 366 365 364 363 364 365 362 360 359 357 357 356 354 352 349 344 336 330 327 325 324 324 325 325 326 327 328 329 329 330 329 329 330 331 330 330 329 330 330 331 331 332 332 332 332 332 331 330 330 330 330 331 333 335 335 335 335
359 360 361 363 364 365 365 364 364 365 365 366 366 366 366 366 367 367 366 364 364 364 364 365 367 368 367 366 366 364 362 361 360 358 355 352 351 350 348 346 344 340 336 331 327 325 324 324 324 325 326 327 328 329 329 330 330 330 330 329 330 330 330 330 329 330 331 331 331 331 332 332 332 331 329 328 328 328 328 330 332 333 334 334 335
360 362 363 363 364 365 366 365 365 365 366 366 367 367 367 367 367 366 366 364 364 364 363 363 362 361 359 359 358 355 352 351 349 347 346 344 343 341 338 333 329 327 326 325 324 324 324 324 325 326 327 328 328 328 329 329 330 330 330 329 330 330 330 329 328 329 331 331 331 331 332 332 332 331 329 328 328 328 328 330 331 332 331 331 331
358 361 361 361 362 364 365 366 365 364 364 365 366 367 367 366 365 365 365 364 361 359 359 358 355 351 346 344 344 343 342 342 342 341 338 335 333 331 329 327 325 325 325 324 324 324 324 325 326 326 327 327 326 327 329 330 331 330 329 330 330 330 329 329 328 329 331 331 330 331 333 333 330 329 328 328 328 328 329 330 330 329 329 329 329
354 358 360 361 361 363 365 365 364 363 363 364 365 365 365 364 362 361 360 358 355 353 351 348 345 342 338 336 336 337 336 335 334 332 329 328 328 327 327 327 326 326 325 325 325 325 325 325 325 325 325 325 326 328 330 331 331 330 330 330 330 329 328 329 329 330 332 332 330 331 334 333 330 327 328 328 328 328 329 330 330 328 328 328 328
351 354 357 358 359 361 362 362 362 361 360 360 360 360 359 359 357 354 350 348 345 343 341 338 336 335 335 332 331 330 330 329 328 328 327 328 328 328 328 327 327 326 326 326 326 327 326 326 326 326 326 326 328 330 331 331 331 331 330 330 330 329 328 329 329 330 332 332 331 332 333 333 331 328 328 329 329 328 328 329 330 330 329 329 328
350 352 354 354 355 356 356 356 357 356 355 353 352 352 350 349 348 347 345 342 339 336 334 333 332 332 333 332 332 332 331 330 330 330 331 331 331 330 329 329 328 328 328 328 328 328 328 327 327 328 329 330 331 332 331 331 331 331 331 330 330 330 329 329 330 332 334 334 333 332 333 333 331 328 327 329 329 328 328 328 327 328 330 331 330
348 350 351 352 352 353 353 354 354 353 351 349 347 345 344 342 342 342 341 340 338 335 332 331 330 331 333 335 334 334 333 332 332 333 332 332 331 331 330 330 330 330 330 329 329 329 329 328 329 330 331 331 331 332 331 331 331 331 330 331 331 330 330 331 332 333 335 335 334 333 332 332 329 326 325 328 329 329 329 329 327 326 328 329 330
346 348 349 349 349 350 350 351 352 351 349 347 345 343 342 341 340 339 338 337 335 333 332 331 332 334 335 336 335 335 333 332 332 332 332 331 331 331 331 331 331 330 330 329 329 329 329 329 330 331 331 332 331 331 331 330 330 330 330 330 330 330 331 332 333 333 334 335 335 334 333 331 329 326 325 326 328 329 330 330 329 326 325 326 327
345 345 346 346 347 348 348 349 349 347 346 344 343 341 340 339 337 337 336 335 333 332 332 332 333 335 335 335 335 334 332 331 332 332 332 332 332 332 331 330 330 330 329 329 328 329 329 330 330 331 331 331 331 330 329 329 329 329 329 329 329 330 331 332 332 332 332 332 333 333 333 332 330 329 327 326 327 328 329 330 330 328 327 326 326
343 344 344 344 344 344 345 345 344 343 342 341 340 339 338 337 337 336 335 334 334 334 334 334 334 335 335 334 334 333 333 333 333 333 333 332 332 331 331 330 330 329 329 329 328 329 329 330 330 330 330 330 329 329 328 328 328 328 328 328 328 329 331 332 332 331 331 331 330 331 332 332 331 331 329 328 327 327 327 328 328 328 328 328 328
342 343 342 342 342 342 343 343 343 342 341 340 339 338 337 336 336 335 335 334 334 334 334 334 335 334 334 334 334 333 333 333 333 333 333 333 332 332 331 330 330 329 329 329 329 329 329 330 330 329 329 329 328 328 328 327 327 328 327 328 328 328 330 331 331 330 330 330 329 330 330 331 331 331 330 330 329 328 328 328 328 327 327 328 328
340 340 340 340 340 340 341 341 341 341 341 340 338 337 335 335 335 335 334 334 334 334 334 334 334 334 334 334 333 333 333 333 332 332 332 332 332 331 330 329 329 330 329 329 329 328 329 329 329 328 328 328 328 327 327 327 327 327 327 327 327 328 328 329 329 329 329 329 329 329 329 330 331 331 330 330 330 329 329 329 328 327 327 327 327
338 337 338 338 338 338 338 338 338 339 339 339 338 336 335 335 335 334 334 334 334 333 333 333 333 333 332 332 332 332 332 331 331 331 330 330 330 329 329 328 329 329 328 328 328 328 327 327 327 327 327 327 327 326 327 327 326 327 327 327 327 327 328 327 328 328 328 328 328 328 329 329 329 329 329 329 329 328 328 329 329 327 326 326 326
336 335 335 335 335 335 335 335 335 336 336 336 336 335 335 335 334 334 334 333 332 332 332 331 331 331 330 329 329 329 328 327 327 327 327 326 326 326 327 327 328 328 328 327 327 326 326 326 325 325 325 325 325 325 325 325 325 326 326 326 326 326 327 327 327 327 327 327 327 327 328 328 328 327 327 328 328 327 327 328 329 328 326 326 325
331 331 331 331 332 332 331 331 332 333 334 334 334 333 333 332 331 331 330 330 329 329 328 327 327 326 326 325 324 324 324 324 324 324 324 324 324 325 326 327 327 328 328 327 326 326 325 324 324 323 322 322 322 322 322 322 322 322 323 323 323 323 323 325 326 326 327 327 326 326 326 326 326 326 325 326 326 325 325 326 327 327 327 325 325
324 325 324 324 324 325 325 325 326 326 327 328 329 329 328 327 326 325 324 324 324 323 323 323 323 323 323 323 322 323 323 323 324 324 324 324 324 325 325 326 326 326 326 325 324 324 324 323 323 322 321 320 320 320 320 320 320 320 320 320 320 320 320 321 322 323 324 324 324 324 325 325 324 324 324 324 324 324 323 323 324 325 325 325 324
321 321 320 318 318 318 319 319 318 319 319 321 321 322 322 321 320 319 319 319 319 320 320 320 321 321 322 322 322 322 322 322 323 323 323 322 322 322 323 323 323 324 324 324 323 322 322 322 322 321 320 320 319 319 318 318 318 318 318 318 318 318 318 319 319 320 320 321 320 321 322 322 321 321 321 322 323 323 323 322 321 321 322 322 322
Wind_Speed
51 49 47 45 44 43 42 41 41 40 40 40 39 37 35 35 35 35 35 34 32 30 28 27 27 26 26 25 25 25 24 24 23 23 23 23 23 23 22 22 22 22 21 21 20 21 21 21 21 21 20 20 20 20 20 20 21 22 23 24 24 24 25 25 28 30 28 24 22 20 19 20 21 21 21 21 20 20 20 20 20 21 22 23 23
52 50 48 46 45 43 42 41 41 42 42 41 40 38 37 36 35 36 36 35 33 32 30 29 29 28 27 26 26 26 26 25 25 25 25 24 24 23 23 23 23 23 23 23 22 22 22 23 22 22 22 23 22 22 23 22 22 23 23 25 26 26 26 27 29 31 32 29 26 25 24 25 25 24 24 25 24 23 24 23 23 23 23 24 24
52 50 48 47 45 43 42 42 42 42 43 43 42 40 39 37 36 37 36 35 34 33 32 31 30 30 29 28 28 27 27 27 27 27 27 26 26 25 24 24 24 24 24 23 23 23 24 24 24 23 23 24 24 24 24 24 24 25 25 26 26 26 27 28 29 32 33 32 30 29 28 28 29 28 27 27 27 28 28 27 26 26 26 26 26
52 50 49 47 45 44 43 43 43 43 44 43 42 41 39 38 38 37 37 36 36 34 33 33 32 31 31 31 30 29 29 29 28 28 28 28 27 26 26 26 26 25 25 24 24 24 24 25 24 24 25 26 26 26 26 26 25 26 26 27 27 28 27 28 30 31 34 34 33 31 31 31 31 31 31 31 30 30 31 30 30 30 29 29 28
51 51 49 48 46 45 44 44 44 44 44 44 43 41 40 39 39 38 38 38 37 36 35 34 34 34 33 32 32 31 31 30 30 30 29 29 29 28 27 28 27 27 27 26 26 26 26 25 24 24 26 27 27 27 26 26 26 26 27 27 27 28 28 29 30 31 34 36 35 33 33 33 32 31 31 32 32 32 33 34 34 34 33 32 32
51 51 49 48 47 45 44 44 43 43 43 43 42 41 40 40 39 38 38 38 38 38 37 36 36 35 34 34 34 33 32 32 31 31 31 30 30 29 29 29 29 30 30 29 29 28 28 27 27 26 27 28 28 27 27 26 26 27 27 27 27 28 29 30 31 32 34 36 36 35 34 34 33 32 30 31 32 33 35 36 37 37 37 36 36
50 50 50 49 47 45 43 41 41 41 41 41 42 41 40 40 39 38 38 38 38 39 39 38 37 36 36 35 35 35 34 33 33 32 32 31 31 31 31 30 31 31 31 31 31 31 30 30 30 29 29 29 29 28 28 28 28 27 27 28 28 29 30 30 31 33 35 36 37 36 35 34 34 34 32 32 33 33 34 37 39 39 39 39 39
50 50 50 49 48 46 43 41 40 39 40 40 41 41 40 40 39 38 38 38 39 39 39 39 38 38 38 37 37 36 35 35 34 34 33 33 32 32 32 32 32 32 32 32 32 32 32 32 32 32 31 31 30 30 29 30 30 30 29 28 29 30 31 32 33 34 35 37 38 37 37 37 36 34 34 35 36 35 34 36 39 40 40 40 40
50 50 50 50 48 46 44 42 41 40 40 41 41 41 41 40 39 38 38 39 39 39 39 39 39 39 39 39 39 38 38 37 36 35 35 34 34 34 33 33 33 32 32 32 33 33 33 33 33 33 33 33 33 32 32 32 33 33 32 31 32 33 34 34 36 36 37 38 39 39 39 40 38 36 36 37 37 37 36 38 41 40 40 42 42
50 50 50 49 47 46 44 43 42 41 41 41 41 41 41 41 40 39 39 39 39 39 39 40 41 41 40 40 40 40 40 39 38 37 36 35 35 35 35 34 34 34 33 33 33 33 33 33 34 33 33 34 34 34 33 33 34 34 33 33 34 35 36 37 38 38 38 40 40 40 41 43 41 38 38 38 38 39 40 41 43 42 41 43 43
49 49 48 47 46 45 44 43 43 42 42 41 41 41 41 41 41 40 40 40 39 39 40 41 42 42 41 42 42 42 41 40 38 37 37 36 36 36 36 36 35 35 35 35 35 34 34 34 33 33 33 33 32 32 32 32 32 32 32 33 34 35 37 38 39 39 40 41 41 41 43 44 42 41 41 40 40 41 42 42 43 43 42 43 44
48 47 46 45 44 44 43 43 43 42 42 41 41 40 41 41 41 41 41 41 40 40 41 41 42 42 42 43 43 43 42 40 39 38 37 37 37 37 37 37 38 38 37 37 36 35 35 35 34 33 33 31 31 31 31 30 30 31 31 32 33 35 36 37 38 39 40 42 44 44 45 45 44 43 43 42 41 43 44 44 44 44 44 45 46
46 45 44 44 43 43 42 42 42 42 41 41 40 40 40 41 41 41 40 40 40 40 41 41 42 42 43 44 44 44 44 42 40 39 39 38 38 38 39 39 39 39 39 38 37 36 36 35 35 34 33 32 31 31 31 30 30 31 32 33 33 34 35 36 37 38 39 42 45 46 45 44 45 44 42 42 44 45 46 47 45 45 47 47 48
45 44 43 43 42 41 41 42 41 41 40 40 40 40 40 40 40 40 40 40 40 41 41 41 41 42 42 43 44 44 44 43 41 40 39 39 38 39 39 40 40 40 40 39 38 37 36 36 36 34 33 32 32 31 31 31 31 32 33 34 34 34 34 36 36 36 37 40 43 45 44 44 46 45 41 41 45 45 46 46 45 46 49 49 49
44 43 42 41 41 40 40 40 40 39 39 39 39 39 39 39 39 39 39 39 40 40 40 41 41 42 42 42 43 44 44 42 42 41 40 39 38 39 40 40 40 40 40 39 39 38 37 37 37 35 33 33 32 31 32 31 32 33 34 35 35 35 35 36 35 34 35 36 38 41 41 40 42 42 40 40 42 43 45 46 46 49 50 50 51
43 42 41 40 39 39 39 38 38 37 37 38 39 38 38 37 36 36 37 38 38 39 39 40 41 41 41 42 43 44 43 41 41 41 40 39 38 39 40 40 40 40 39 39 39 38 38 38 37 35 34 33 32 31 31 31 33 34 36 36 37 38 38 38 36 35 36 36 37 38 38 38 39 40 41 42 43 44 46 48 51 52 51 52 54
42 40 40 39 38 37 37 37 36 36 36 37 37 36 35 34 33 33 35 36 36 37 38 38 39 40 41 41 42 43 41 40 39 39 39 38 38 39 39 39 39 39 38 37 38 38 37 37 36 36 36 34 32 32 31 32 34 36 37 38 39 41 41 40 39 39 39 39 39 39 39 39 40 41 43 43 43 45 48 52 55 53 51 52 54
40 39 38 37 36 36 36 36 35 34 35 36 35 34 33 31 31 31 33 33 33 34 34 35 36 37 39 40 40 41 40 38 38 38 37 38 38 38 38 38 38 38 38 37 37 37 36 36 36 37 36 34 33 32 32 33 35 37 37 38 40 42 42 41 40 41 41 40 41 40 40 41 41 42 43 43 43 45 48 53 54 52 51 52 53
39 38 37 35 34 35 35 35 35 34 34 34 33 32 31 30 29 29 31 31 31 31 32 34 35 36 36 37 37 37 38 37 36 36 36 37 37 37 37 38 39 38 37 36 36 36 36 35 35 35 35 34 33 33 32 33 35 37 37 39 43 44 42 40 39 39 39 40 41 41 42 43 44 46 46 46 46 46 48 51 52 52 54 55 53
36 36 36 35 34 34 35 35 35 34 34 33 32 31 30 30 30 30 31 31 31 31 33 34 35 35 35 35 34 34 35 35 34 34 34 35 36 35 36 38 38 37 36 36 36 35 35 35 34 34 33 33 33 33 32 33 35 37 38 40 42 41 37 36 37 37 38 40 40 41 43 45 48 49 50 50 49 48 48 49 50 51 54 57 57
33 34 35 35 36 36 36 36 35 34 33 32 32 32 31 31 31 31 31 31 32 33 34 34 35 35 34 34 33 32 33 33 32 32 33 34 34 34 35 36 36 35 35 36 36 36 35 35 34 33 32 32 32 32 32 33 35 36 37 37 36 35 34 35 37 37 38 40 40 41 43 46 48 50 50 52 53 53 52 52 52 52 53 56 58
32 33 35 36 37 37 36 36 35 34 34 34 34 34 33 32 32 32 32 32 33 34 35 35 36 35 34 34 33 32 31 31 31 31 32 32 32 33 34 34 34 34 35 36 36 36 35 34 33 32 32 32 32 31 31 31 32 33 33 32 32 33 35 37 37 38 39 40 41 42 43 45 47 49 50 51 53 54 56 57 56 56 56 56 56
28 30 31 33 35 36 36 36 35 35 34 34 34 35 34 33 33 33 33 34 34 35 36 36 37 36 35 34 34 32 31 31 31 31 31 31 31 32 33 32 32 32 34 35 34 34 33 33 32 31 31 30 30 30 30 29 29 29 30 31 33 34 36 37 37 38 39 40 41 42 44 46 48 50 52 53 53 55 58 60 61 60 58 57 57
21 23 25 26 28 29 31 32 33 33 33 33 33 34 34 34 34 34 34 35 35 36 36 36 37 37 36 35 33 32 31 30 30 31 30 30 30 30 31 31 30 30 31 32 32 31 31 30 30 29 28 28 28 28 29 29 29 30 32 33 34 35 36 37 37 38 39 41 42 44 46 47 49 52 53 54 54 56 58 59 61 61 59 57 57
20 21 21 22 23 23 24 25 26 28 29 31 32 32 32 33 34 35 35 36 36 37 36 36 36 36 36 35 33 31 30 30 30 30 30 30 30 30 30 28 27 27 28 28 28 28 28 27 27 27 27 28 28 29 30 30 31 31 32 33 34 34 35 36 37 39 41 42 42 44 46 47 47 48 49 49 50 52 54 55 57 59 59 59 58
20 20 21 21 21 22 23 23 22 22 23 25 27 28 29 31 32 34 35 35 36 36 35 35 35 35 35 34 32 30 29 30 31 31 30 30 30 29 28 26 25 24 25 25 25 25 25 25 26 27 28 29 29 29 29 30 30 30 31 31 32 33 34 36 37 38 39 39 40 41 42 42 43 43 44 45 48 49 51 53 55 56 56 55 55
14 15 17 17 18 19 21 23 23 22 21 21 22 23 25 27 30 32 34 35 36 36 35 35 35 35 34 32 30 29 29 30 31 30 29 29 28 27 26 25 23 23 23 23 24 24 25 26 27 28 29 29 28 27 27 27 28 28 29 30 31 32 33 34 34 34 34 35 36 37 38 39 41 43 44 46 48 49 49 50 51 53 52 50 51
8 9 10 13 15 17 19 21 22 21 20 20 21 22 24 27 29 31 33 33 34 34 34 34 33 32 31 30 28 28 29 29 29 28 27 27 26 26 25 23 22 22 23 23 24 25 26 27 27 26 26 25 25 25 25 25 26 27 29 30 30 30 30 30 30 31 32 33 34 36 38 40 42 44 45 45 45 46 45 45 47 49 48 46 47
7 8 8 10 12 15 17 19 19 20 21 22 23 24 25 26 28 30 32 32 32 31 31 31 29 28 27 26 26 27 28 27 26 25 25 25 24 23 22 21 21 22 22 23 24 24 24 23 23 23 23 22 22 23 23 25 26 27 27 27 27 27 27 28 29 30 30 31 33 35 38 39 40 41 41 42 43 43 43 43 45 46 45 44 47
8 8 9 10 11 13 15 18 19 21 22 24 24 24 24 25 26 28 30 30 29 29 29 28 26 24 23 24 24 25 24 23 22 23 23 22 21 20 19 19 20 20 20 21 20 20 20 21 21 21 20 20 21 23 24 25 26 26 25 25 25 25 25 25 26 27 28 30 31 33 34 35 36 37 38 40 41 41 40 41 43 43 42 42 45
8 7 8 10 12 13 15 17 19 21 23 24 23 23 23 23 24 26 27 27 27 27 27 26 23 21 21 22 22 23 22 21 21 21 21 20 20 19 19 19 19 19 19 18 18 19 19 20 19 19 18 19 21 22 23 23 23 23 24 23 23 23 23 23 24 25 26 27 28 28 30 32 34 36 37 37 39 39 39 41 44 43 42 42 43
8 7 7 9 10 13 16 17 19 20 22 23 23 23 22 22 23 24 24 24 24 23 23 22 21 20 20 20 20 21 20 20 21 20 20 21 20 20 21 20 19 18 18 18 19 19 18 17 16 16 17 18 19 19 19 20 20 20 21 21 21 21 21 21 22 23 24 24 25 26 28 31 34 34 34 34 36 38 40 42 44 42 41 40 40
9 7 7 8 9 12 14 16 18 20 21 22 22 22 21 21 21 21 22 22 22 22 22 22 21 22 22 22 22 22 21 21 22 20 20 20 20 19 19 19 17 17 17 16 16 15 14 14 14 15 15 16 16 16 16 16 17 18 19 20 20 19 19 20 21 21 21 21 22 25 27 29 31 30 30 31 32 34 38 41 42 41 36 34 33
9 9 9 10 10 11 12 14 15 17 19 20 20 20 20 20 20 20 20 21 21 20 21 21 21 22 21 20 20 19 17 18 21 20 19 19 18 17 17 16 16 15 13 11 11 11 12 12 12 13 13 14 14 14 14 15 16 17 18 18 18 18 18 18 18 18 17 18 21 24 26 27 27 26 26 28 30 34 38 39 40 39 34 29 28
6 8 9 10 12 13 13 13 13 14 16 18 19 19 20 20 21 22 21 20 19 19 18 18 18 17 17 17 16 13 13 17 20 20 19 18 17 15 14 13 12 11 10 10 10 11 11 11 10 11 12 12 13 14 14 15 16 17 17 18 18 18 18 17 16 15 16 18 20 22 23 23 22 22 23 26 30 35 37 36 34 34 34 31 29
3 5 7 9 12 13 14 15 14 15 16 17 19 21 22 23 23 22 20 18 17 16 17 16 16 15 15 15 16 16 16 18 19 17 16 15 14 12 11 9 9 9 9 10 9 8 8 8 9 10 11 12 13 14 15 15 15 16 17 17 17 17 16 15 14 14 15 17 18 20 21 20 18 19 22 26 30 32 32 30 29 29 29 29 28
5 5 7 9 11 13 14 15 16 16 17 19 20 22 24 24 23 22 20 19 17 17 18 18 18 18 17 16 16 16 16 16 15 14 12 11 11 10 9 9 9 9 8 7 6 6 6 7 8 9 11 12 13 14 14 14 14 15 16 16 16 15 14 13 13 14 15 15 15 16 17 16 16 20 24 26 28 29 27 25 24 23 21 21 21
7 6 7 10 13 15 16 17 18 19 20 21 22 23 24 24 23 23 22 21 20 21 20 19 19 18 17 15 13 12 12 12 12 12 12 11 10 9 8 8 7 7 5 5 6 6 7 8 9 10 12 13 13 13 12 13 14 14 15 15 14 13 12 11 11 12 13 13 12 13 14 14 16 21 25 25 24 24 24 22 20 18 16 16 17
9 8 7 9 12 14 16 18 20 21 21 22 23 23 23 23 23 23 23 22 22 22 21 20 19 17 16 14 13 12 12 13 13 12 11 11 9 7 7 6 5 4 4 5 6 7 8 9 10 11 12 12 12 11 11 12 13 13 13 13 12 11 10 10 11 11 11 10 10 12 13 13 14 19 23 22 19 19 20 20 19 17 14 13 15
10 10 9 9 9 9 11 13 16 17 19 20 21 22 23 23 24 24 23 22 21 20 20 19 18 17 16 15 14 13 13 13 13 11 10 9 8 7 6 5 4 3 3 4 5 7 9 10 10 10 10 9 9 10 11 11 12 12 12 11 10 9 9 9 10 10 9 7 8 11 13 12 12 16 19 17 15 15 16 17 18 17 14 14 16
10 9 10 10 10 9 10 11 14 16 17 19 22 24 25 25 24 23 21 20 19 20 20 20 19 19 19 17 16 14 13 14 14 12 10 9 8 7 6 4 3 2 2 4 5 7 8 9 9 8 7 7 8 9 10 10 10 10 10 9 8 8 8 8 8 8 6 5 6 9 11 11 12 14 16 14 12 12 12 13 14 14 14 14 15
10 10 10 12 13 13 14 15 18 19 21 23 25 26 25 24 22 21 21 21 22 22 22 22 22 22 20 19 17 14 13 12 12 10 9 7 6 5 4 2 1 2 3 4 5 6 7 7 7 7 7 8 8 9 9 9 9 9 8 8 8 8 7 6 5 5 5 4 5 7 9 10 11 12 14 12 10 9 9 10 11 11 12 12 12
11 11 12 13 15 17 18 20 22 24 26 27 27 27 26 25 24 24 23 23 23 23 23 23 23 22 20 18 16 13 11 10 9 8 7 6 4 3 1 1 2 3 4 5 5 6 7 7 8 9 9 8 8 9 8 8 7 7 7 7 7 7 6 4 3 3 4 5 5 6 8 9 9 10 11 11 9 8 8 8 8 9 9 10 10
14 13 14 16 17 19 20 22 25 28 29 29 29 28 28 27 26 25 24 24 24 23 23 22 21 20 18 16 14 11 10 9 8 7 5 4 2 2 2 3 3 4 5 6 6 7 7 8 8 9 8 8 8 8 7 7 6 6 6 6 6 6 4 3 3 3 4 6 7 7 7 7 8 8 8 8 8 8 7 6 6 7 7 7 7
16 16 17 19 20 21 21 22 25 28 30 31 31 31 30 28 27 26 24 24 23 22 21 21 19 18 17 15 13 11 9 8 8 6 5 4 3 3 5 5 4 5 6 7 7 7 7 7 7 7 7 7 7 6 6 5 5 5 5 5 5 5 4 4 4 5 5 6 7 7 7 7 8 8 8 7 8 8 7 6 5 6 6 6 5
21 21 21 22 23 24 24 25 26 28 28 29 30 29 28 27 26 24 23 22 20 19 19 18 17 16 14 13 12 10 9 8 7 6 5 4 4 5 6 7 6 6 7 8 8 8 7 7 7 6 6 6 5 5 4 4 4 4 5 5 5 5 4 4 4 5 5 6 6 7 7 7 7 8 7 7 8 8 8 7 6 6 6 5 4
26 26 26 26 26 26 26 26 27 28 29 29 29 28 26 25 23 22 21 20 19 18 17 16 15 14 13 12 11 10 9 8 7 6 6 5 5 5 6 7 7 7 8 9 9 8 7 7 6 6 5 5 5 4 4 4 4 5 5 5 5 4 4 4 4 4 5 6 6 6 7 8 8 8 8 7 7 8 8 8 7 6 5 4 3
29 29 29 29 28 28 27 27 26 26 27 27 27 25 24 23 21 20 19 18 17 16 14 13 12 12 10 9 8 8 7 7 6 5 5 5 5 5 6 7 7 8 10 10 9 8 7 6 6 5 5 5 4 4 5 5 5 5 6 6 5 5 5 4 4 4 5 6 6 6 7 8 8 9 9 7 6 6 7 8 8 6 5 3 2
32 31 30 30 29 28 27 26 26 25 25 25 24 23 22 21 19 18 17 16 14 13 11 10 9 8 6 5 4 3 2 2 2 2 3 4 4 5 6 7 8 9 10 10 10 8 7 6 6 6 5 5 5 5 5 6 6 6 6 7 6 6 5 5 5 5 5 6 7 8 7 8 9 9 9 8 7 6 6 7 8 8 7 6 5
27 28 28 28 29 28 27 26 25 24 23 22 22 21 20 18 16 15 13 12 11 10 9 8 7 7 6 5 5 4 3 2 2 1 1 2 3 5 6 8 9 9 10 9 9 8 7 7 7 7 6 6 6 6 7 7 7 7 7 7 6 6 5 5 5 6 6 7 8 8 8 8 9 9 9 8 8 8 7 7 8 9 9 9 8
23 23 23 24 25 26 26 26 25 24 22 20 19 18 18 17 16 15 14 13 13 12 12 11 10 9 8 7 7 6 5 4 4 3 2 1 1 1 2 3 4 6 7 8 8 8 8 8 8 8 8 7 8 8 8 8 8 8 8 8 8 8 7 7 6 6 6 7 7 7 8 8 8 7 7 7 7 8 9 9 9 10 10 10 10
Wind_Direction
221 223 224 225 227 229 230 232 232 232 230 229 229 228 229 230 231 233 235 236 236 234 231 228 227 226 226 225 223 221 222 223 225 227 230 233 235 237 238 241 245 247 247 246 245 245 246 247 249 251 253 255 257 257 258 258 258 258 259 261 261 261 261 261 266 276 282 281 279 280 278 277 275 275 277 278 279 278 276 275 274 274 274 275 275
221 223 224 225 227 229 232 233 233 233 232 231 230 229 229 229 231 233 235 236 236 235 232 230 229 230 230 229 227 224 224 224 226 228 230 233 235 237 239 241 244 247 249 249 248 248 249 251 252 252 254 256 258 259 260 260 259 260 261 262 264 264 264 264 267 274 280 283 282 281 278 277 277 277 278 278 279 279 276 274 273 273 273 274 274
221 223 224 226 228 230 232 233 234 234 233 233 232 230 230 230 231 233 234 235 236 235 233 232 232 232 232 231 230 228 227 226 226 228 231 233 235 237 240 242 245 247 249 251 251 252 253 254 255 256 256 258 260 261 262 262 262 263 264 264 265 266 266 266 268 272 278 283 284 283 282 281 280 280 279 278 277 275 273 272 272 271 271 272 272
221 222 224 226 228 229 231 232 233 234 234 234 234 232 231 231 231 233 234 235 236 236 235 234 234 234 234 234 233 232 230 229 228 229 231 233 235 237 239 242 245 247 249 252 253 254 255 256 257 258 260 261 262 263 263 264 264 265 267 268 269 271 270 269 270 272 276 280 284 286 286 286 285 285 283 281 277 274 273 272 271 270 270 271 271
219 221 224 226 227 228 230 231 232 234 235 235 235 234 233 233 233 233 234 235 236 236 236 236 236 236 236 236 236 236 234 233 232 232 233 234 235 237 239 241 244 247 249 252 253 254 256 257 258 260 261 263 264 264 265 265 267 268 269 271 273 275 275 274 274 275 275 278 283 288 288 288 288 288 286 284 282 278 276 274 272 271 271 271 270
219 221 223 225 226 228 230 232 234 235 236 236 236 235 234 234 235 235 235 235 235 236 237 237 237 237 236 237 238 239 239 238 238 238 237 237 237 238 239 242 244 247 249 251 252 254 256 258 259 260 261 263 265 266 267 267 269 270 271 273 274 275 276 277 277 277 277 279 283 286 287 288 288 288 288 286 283 281 278 276 274 272 271 271 271
219 221 223 225 227 230 232 234 236 237 237 237 237 236 235 235 236 236 236 236 236 236 237 238 238 238 238 239 239 240 241 241 242 242 242 242 242 241 242 243 245 247 250 251 252 253 254 257 259 260 261 263 264 266 268 269 271 271 273 274 275 275 276 277 278 278 279 280 282 284 286 287 287 288 289 287 283 280 277 276 276 275 274 273 274
220 221 223 225 227 230 232 234 236 237 238 238 238 237 237 236 237 237 238 238 237 237 238 238 239 240 241 241 242 243 243 243 244 244 245 245 246 246 246 247 247 249 251 252 253 254 255 257 258 260 261 262 264 266 267 270 272 272 273 274 275 276 277 278 279 280 280 281 282 283 284 284 285 287 288 287 284 283 282 280 279 280 279 277 277
221 222 223 225 227 230 231 233 235 237 238 238 238 238 238 237 237 238 238 239 239 239 239 240 241 242 243 243 244 245 246 246 246 245 246 247 248 249 250 251 251 252 253 254 255 256 257 258 260 261 262 263 265 266 268 269 271 272 273 274 275 276 277 278 279 280 281 281 282 283 284 284 285 286 286 285 285 288 289 285 282 283 282 280 279
221 222 224 226 229 230 231 233 235 236 237 238 239 239 238 238 238 238 239 240 241 241 241 242 243 243 244 245 246 247 247 247 247 247 248 249 250 252 253 254 255 256 257 257 258 259 259 261 263 264 266 268 268 269 270 271 271 273 274 275 276 277 278 279 280 280 281 282 283 284 284 284 285 286 286 287 288 288 288 286 286 287 285 282 282
221 223 225 228 230 231 232 233 235 236 238 239 240 240 239 239 239 239 240 240 241 242 243 244 244 245 246 247 247 248 248 248 249 249 250 251 252 254 255 257 259 259 261 261 261 263 264 266 268 270 271 272 272 272 273 273 274 275 275 276 278 279 280 280 281 282 283 284 285 285 285 285 288 288 288 289 290 289 288 287 287 287 285 283 283
221 224 228 230 231 232 233 235 236 237 238 239 240 241 241 241 241 241 241 241 242 243 244 245 245 246 247 248 249 249 250 250 250 251 252 253 254 256 257 259 261 262 263 264 265 267 269 271 273 273 274 275 275 276 276 276 276 277 278 279 279 280 280 281 281 283 284 284 285 286 285 287 290 291 291 293 294 293 291 289 288 287 286 283 282
222 226 230 231 233 234 235 236 237 238 240 240 241 242 242 242 243 243 243 243 244 245 245 246 246 247 248 249 250 251 252 252 252 253 254 255 256 257 258 260 262 264 265 267 269 271 272 274 275 276 277 278 278 279 279 280 281 281 282 283 282 282 282 282 283 284 284 284 284 285 287 288 289 291 294 295 294 291 290 289 289 288 286 284 285
224 228 231 232 234 236 236 237 239 240 241 241 241 242 242 244 245 245 246 245 245 246 247 247 247 248 248 249 251 252 253 254 255 255 256 256 257 258 259 260 262 264 266 268 270 272 273 275 276 277 279 280 280 281 282 284 286 287 288 287 287 287 286 286 287 286 286 285 284 286 289 289 289 292 294 292 289 287 286 286 287 288 287 287 289
225 229 231 232 234 236 236 238 239 241 242 241 242 242 243 245 246 246 247 247 247 248 249 249 250 250 250 251 252 253 254 255 256 257 258 258 259 260 261 262 263 264 266 268 269 271 273 274 276 278 279 280 282 283 285 288 289 290 290 290 290 291 289 290 291 290 289 288 287 289 291 291 290 291 291 288 285 284 285 286 286 285 284 284 284
225 228 231 232 234 236 237 238 239 241 241 241 241 242 243 245 247 247 248 248 249 250 251 251 251 252 253 253 253 254 255 256 257 258 259 260 260 261 262 263 264 265 266 267 269 271 272 273 275 277 279 281 283 285 287 289 290 290 290 290 291 291 291 292 294 293 292 291 290 290 291 292 290 289 288 286 284 284 284 283 282 279 276 276 277
226 229 231 233 235 236 237 238 239 240 241 240 241 242 244 246 247 248 248 248 249 250 250 251 252 253 254 254 254 256 257 257 258 259 260 261 261 261 262 263 264 265 267 268 269 270 271 273 274 276 278 281 283 285 288 288 288 289 290 291 292 292 292 294 296 296 296 295 294 294 294 293 291 288 288 286 286 285 280 276 276 273 269 269 270
227 230 232 235 237 238 239 240 240 241 241 241 242 243 245 246 248 248 248 249 250 251 252 253 254 254 254 254 255 257 259 260 260 261 262 262 261 262 263 264 265 266 267 269 269 270 271 272 274 276 278 281 284 286 288 287 287 288 289 291 291 290 291 294 295 297 298 297 297 296 295 295 293 291 290 289 288 285 277 275 277 273 266 264 264
230 232 234 237 239 241 242 242 242 242 242 243 245 246 246 248 248 249 250 250 252 253 253 254 254 255 255 256 257 258 260 261 262 262 262 262 262 263 264 264 265 266 268 269 270 270 271 273 274 276 279 282 285 286 287 287 286 287 288 288 287 288 293 295 296 296 296 295 296 296 296 296 295 293 292 290 289 286 279 278 278 273 267 264 263
236 237 238 239 240 241 242 243 243 244 244 246 247 248 249 249 249 249 250 252 253 253 253 253 254 255 256 257 258 259 261 262 262 262 263 263 263 263 263 264 266 267 269 270 272 273 274 275 277 279 282 284 286 287 287 286 285 286 285 284 286 292 298 299 296 295 294 293 294 295 295 296 296 294 294 294 293 291 287 283 281 277 272 268 264
238 238 239 240 240 240 241 243 244 246 247 249 249 249 249 249 249 250 251 252 253 253 253 253 254 255 256 257 259 260 261 263 263 264 264 264 264 264 264 264 266 269 271 272 274 275 277 279 281 284 286 287 287 287 287 286 286 286 287 287 290 295 297 295 293 292 290 289 289 289 291 294 295 295 296 297 297 297 295 291 288 285 281 275 269
237 237 238 238 239 240 242 244 245 247 248 249 249 249 249 250 250 251 251 252 253 253 253 253 253 254 255 256 257 259 261 262 263 264 264 265 265 265 265 266 268 270 272 273 275 277 279 282 284 286 286 287 287 286 286 286 286 287 287 288 289 289 289 289 290 291 291 290 290 290 291 293 293 293 293 294 295 296 296 293 291 290 287 284 279
236 238 239 240 241 242 243 245 247 248 249 249 249 250 250 250 250 250 250 251 251 252 253 253 253 253 254 255 256 258 260 261 262 263 264 265 265 266 267 268 270 271 271 273 276 278 281 282 283 284 284 284 284 284 284 284 283 283 284 285 287 288 290 291 292 293 294 294 294 293 292 291 291 290 290 291 291 292 292 291 290 290 287 284 282
233 237 239 241 244 245 246 248 249 249 250 249 249 250 250 251 251 250 250 249 249 250 251 252 252 252 252 254 256 257 259 260 261 262 263 264 264 265 267 268 269 270 271 273 275 277 278 279 280 280 280 280 280 281 282 282 283 285 287 289 290 291 293 294 294 294 292 292 291 290 289 289 290 289 290 292 292 291 290 289 290 289 286 283 281
237 239 241 243 245 247 248 249 249 250 250 250 249 249 249 249 249 249 249 248 248 249 250 251 252 252 253 255 256 258 260 260 261 261 262 262 262 263 264 266 266 265 266 268 270 272 274 274 275 276 277 278 279 281 283 285 288 289 290 291 292 293 293 293 293 291 291 291 291 291 292 293 294 294 296 297 296 295 295 296 295 294 291 288 284
240 242 243 244 245 246 248 249 248 248 248 247 249 249 249 248 249 249 249 248 248 249 250 251 252 252 253 255 257 259 260 260 259 259 259 260 260 260 261 260 258 257 258 261 264 266 268 269 271 273 275 277 280 283 286 288 289 290 290 291 291 291 291 290 290 291 292 295 296 296 298 299 300 302 303 302 301 300 300 299 297 294 292 290 286
240 243 242 242 242 243 245 246 246 245 244 244 245 247 247 247 247 247 247 247 247 248 249 249 251 252 253 255 257 259 259 258 258 258 258 259 259 258 257 256 253 252 254 255 257 259 262 265 267 270 273 277 281 284 285 285 286 288 289 289 288 288 288 289 292 295 297 299 300 301 303 306 307 307 307 304 302 301 299 297 294 292 290 288 285
238 243 241 238 236 237 239 241 241 240 239 239 239 240 241 243 244 245 246 247 248 249 249 250 252 253 255 257 257 256 256 257 258 259 259 259 258 256 255 253 251 251 252 253 255 256 258 262 266 270 273 276 278 279 281 283 286 287 286 286 286 288 291 294 296 299 300 302 305 308 311 312 311 309 308 306 305 304 304 301 299 296 294 290 285
240 243 242 237 233 233 234 236 237 235 234 235 236 237 238 239 241 243 245 246 248 250 252 254 257 258 259 259 257 256 257 258 260 260 259 258 257 256 254 251 248 247 248 249 251 254 257 262 265 267 269 271 275 281 284 284 284 283 284 286 289 291 294 297 299 301 304 308 311 314 314 314 313 313 314 315 315 316 315 313 309 303 297 292 288
248 251 251 247 241 236 233 232 232 232 232 234 237 237 238 239 241 242 244 246 248 250 252 255 258 261 261 259 258 259 261 262 261 259 257 255 253 249 244 241 240 240 241 244 248 254 258 261 262 264 268 274 279 282 281 280 281 283 285 289 291 294 297 301 304 307 311 314 316 317 318 319 321 324 326 325 325 325 324 322 319 310 300 294 291
251 258 263 259 250 242 236 232 231 232 233 235 238 239 239 240 241 242 244 245 246 248 250 252 254 255 257 258 259 260 260 259 256 254 252 249 245 239 234 232 232 235 241 246 249 251 253 256 261 266 272 275 276 277 278 281 285 287 290 292 296 301 306 310 312 315 318 320 323 325 327 330 332 333 333 333 333 334 334 331 326 318 308 302 297
248 257 267 268 256 244 237 233 231 232 233 235 237 238 239 241 242 242 243 243 244 246 246 247 248 249 251 253 255 255 254 251 249 247 244 238 234 230 230 230 229 231 237 241 243 245 248 254 260 266 269 272 275 279 282 285 288 291 296 301 307 311 313 315 318 322 324 326 331 335 337 338 337 335 338 342 344 344 341 338 334 326 316 309 304
245 253 264 269 261 248 239 235 234 234 235 236 238 238 240 243 244 244 242 241 240 241 242 244 246 247 247 247 247 248 247 243 239 236 231 226 223 223 225 226 225 227 232 237 242 246 251 255 259 265 269 274 277 280 284 288 292 298 304 310 314 315 316 317 321 323 325 330 336 340 341 340 337 339 348 355 355 353 351 349 346 339 326 313 308
244 249 257 263 265 259 250 244 241 240 240 240 240 240 239 240 242 243 244 241 238 238 241 242 242 242 242 241 239 238 232 225 222 221 218 216 217 220 222 223 225 229 234 240 244 247 250 254 261 268 272 275 278 283 287 293 299 304 309 313 315 316 316 318 320 320 324 332 339 342 342 340 341 347 358 3 1 360 360 358 355 350 342 330 321
253 257 262 263 263 261 256 250 246 243 241 238 237 236 235 234 235 236 238 241 242 240 237 231 227 228 230 227 221 210 197 196 200 204 205 205 209 213 217 221 226 228 228 230 234 240 249 259 267 272 276 281 286 291 294 298 303 307 310 312 313 314 315 317 319 322 328 336 341 344 344 343 347 357 4 4 1 359 360 0 359 358 355 348 337
317 289 283 276 268 261 254 247 242 240 239 236 234 232 229 229 231 231 231 235 235 228 219 209 199 193 192 192 188 180 177 181 187 191 194 199 205 211 212 212 215 218 219 223 229 239 252 266 274 279 284 289 292 294 298 301 304 307 309 310 312 315 317 319 323 330 335 337 341 346 348 348 355 5 4 1 359 359 359 1 1 359 357 353 346
330 295 278 276 270 261 253 245 239 237 236 233 232 230 225 222 221 220 219 218 210 197 192 189 183 173 165 163 168 172 174 178 182 186 188 191 197 201 198 194 200 209 218 228 240 252 262 270 278 284 288 291 292 295 299 301 302 306 307 308 311 315 319 323 330 338 342 341 342 348 352 354 360 4 0 357 358 360 1 1 1 1 2 4 6
311 288 270 269 265 254 246 241 236 232 230 227 224 223 219 213 207 202 198 193 185 177 172 170 167 163 157 155 160 169 175 177 177 177 177 176 176 173 170 173 185 201 220 242 257 269 276 281 284 287 289 292 295 297 299 300 302 305 307 307 310 315 319 324 332 340 343 343 344 349 351 349 352 356 356 356 358 2 6 7 6 10 18 28 38
289 277 268 271 264 247 236 232 228 222 216 211 207 205 202 198 192 184 174 165 161 160 159 158 157 157 157 154 153 160 170 171 169 168 167 163 157 149 147 158 178 199 225 254 270 281 286 288 291 293 294 293 293 293 295 297 300 305 308 309 310 313 317 325 332 336 339 343 349 351 348 344 346 350 352 355 359 4 11 17 17 20 34 53 73
273 261 255 262 261 241 225 220 215 209 202 195 189 183 177 172 171 169 164 160 158 157 160 165 165 163 160 156 153 158 165 161 155 153 149 142 138 142 151 166 188 208 236 265 280 288 291 293 298 300 296 288 284 285 290 295 301 306 309 309 309 312 320 328 333 333 336 345 356 356 350 345 346 348 349 354 2 6 11 19 23 28 43 64 84
264 251 242 240 237 228 218 208 201 196 191 184 176 170 165 164 165 166 167 168 166 164 165 166 162 155 153 153 154 161 166 160 153 151 150 148 152 163 171 182 201 225 259 281 290 296 298 302 306 305 293 281 280 283 286 292 298 302 304 307 310 313 318 325 331 333 337 347 357 359 354 349 349 352 353 357 5 6 8 18 28 36 49 64 77
250 239 231 227 222 217 210 199 189 185 182 178 174 171 169 168 167 165 163 162 161 161 161 159 155 153 156 158 161 168 174 169 163 164 168 169 171 176 178 190 234 261 272 283 295 303 306 306 305 299 289 283 283 283 283 288 292 294 298 303 306 308 311 318 330 342 351 353 352 358 358 351 348 354 359 2 6 6 7 17 28 38 50 61 68
239 229 222 218 214 209 202 193 185 180 178 177 175 173 171 168 164 160 158 156 155 157 158 157 155 157 160 162 166 174 180 180 178 180 183 180 178 183 199 294 306 291 286 292 299 302 300 297 294 293 292 290 288 287 288 291 293 297 301 305 308 308 307 313 334 357 9 10 3 3 2 351 343 348 357 1 4 5 6 12 20 27 37 44 48
223 221 213 206 202 200 195 190 183 177 173 171 168 166 164 162 159 157 156 155 155 156 156 154 155 158 160 164 170 178 183 183 183 186 190 191 198 242 293 314 311 301 300 303 302 298 295 293 294 296 298 298 295 293 295 297 299 304 309 311 311 308 300 301 323 342 358 10 12 12 7 354 341 338 344 349 351 352 355 3 15 18 20 26 33
195 200 197 192 189 187 184 181 178 173 167 163 160 157 157 157 156 156 158 157 155 154 153 153 155 159 162 164 171 178 183 186 192 201 213 225 242 270 287 296 297 294 294 295 296 294 290 289 292 296 298 297 294 289 289 293 300 308 314 317 317 310 297 295 312 328 343 2 10 12 11 3 352 341 335 338 341 340 337 343 358 6 8 13 25
174 175 177 177 175 173 170 168 167 167 165 163 160 157 156 156 156 155 156 156 155 156 158 159 161 165 168 171 177 183 187 193 203 214 226 238 253 271 284 293 299 296 290 288 289 288 285 284 289 291 286 283 281 278 279 288 297 306 316 322 325 327 323 320 328 341 351 357 3 9 14 15 7 352 338 333 334 332 325 321 331 348 359 3 9
164 162 162 162 161 161 161 160 159 160 161 161 161 160 159 158 158 157 157 158 159 163 165 164 166 171 175 181 188 194 201 212 223 230 235 242 250 263 276 289 298 296 288 281 278 278 279 283 286 280 270 267 272 275 281 288 295 301 309 314 315 320 330 340 351 357 356 353 357 8 17 17 11 2 351 341 337 334 325 314 313 329 352 4 6
162 158 155 154 153 152 152 153 155 156 156 156 158 158 158 159 160 160 161 162 163 166 167 167 170 176 182 191 203 216 226 233 239 243 247 251 253 255 261 268 274 277 276 273 268 267 271 274 273 269 265 268 274 281 287 293 296 297 298 299 299 300 306 322 342 351 350 349 353 4 12 10 5 1 357 350 342 336 329 317 310 311 321 327 317
154 151 148 148 149 147 146 147 151 154 156 156 158 157 157 157 158 158 159 162 165 167 171 172 171 171 174 180 190 206 217 221 230 245 248 244 239 239 243 242 243 250 258 259 257 258 262 264 264 266 270 278 285 291 295 298 300 299 295 293 297 301 304 312 319 319 317 324 334 343 349 349 347 349 350 346 337 328 323 314 305 300 300 299 289
133 135 134 134 135 137 136 136 138 141 146 151 155 155 155 155 153 149 148 150 150 148 148 147 142 136 133 127 117 104 101 106 106 105 217 230 228 231 233 228 225 231 240 246 251 257 261 261 263 268 277 288 297 302 302 301 301 302 301 299 301 307 311 310 307 302 297 301 308 311 312 316 323 331 335 333 325 320 318 313 304 299 298 298 294
96 100 100 102 107 113 116 116 115 116 119 125 130 133 133 131 127 123 120 119 117 114 112 111 110 107 105 102 98 94 90 86 82 74 61 44 34 250 247 240 236 241 249 257 265 272 272 269 269 271 277 285 292 298 302 304 301 300 301 302 302 304 305 301 298 296 294 293 292 290 287 288 296 306 314 317 314 312 312 311 309 307 305 303 300